Location: Kernascl�den
(48.0062°N, 3.3198°W)
Time: 21:28:43
(UTC+00:00)

Aureole 3 - Pass Details

Date: 21 January 2021
Orbit: 381 x 1231 km, 82.5° (Epoch: 03 March)

Event Time Altitude Azimuth Distance (km) Brightness Sun altitude
Rises 18:25:47 0° 353° (N) 2,676 6.8 -14.7°
Reaches altitude 10° 18:28:08 10° 358° (N) 1,671 5.7 -15.1°
Maximum altitude 18:31:38 56° 77° (ENE) 517 2.8 -15.7°
Drops below altitude 10° 18:34:39 10° 158° (SSE) 1,442 5.3 -16.1°
Sets 18:36:32 0° 162° (SSE) 2,261 6.4 -16.5°
